Location: Goettingen
(51.5300°N, 9.9433°E)
Time: 05:56:33
(UTC+02:00)

ISS - Pass Details

Date: 27 March 2020
Orbit: 417 x 423 km, 51.6° (Epoch: 29 March)

Event Time Altitude Azimuth Distance (km) Brightness Sun altitude
Rises 20:40:17 0° 277° (W) 2,361 1.3 -17.7°
Reaches altitude 10° 20:42:23 10° 277° (W) 1,497 0.1 -18.0°
Maximum altitude 20:45:45 86° 188° (S) 424 -3.9 -18.4°
Enters shadow 20:46:09 67° 109° (ESE) 457 -3.9 -18.5°
